Home   Weather   Kuujjuaq   Past weeks

Flag for Canada Past Weather in Kuujjuaq, Quebec, Canada — Yesterday and Last 2 Weeks

23 °F

Light snow. Overcast.

Feels Like: 12 °F
Forecast: 19 / 25 °F
Wind: 10 mph from Northwest

Location: Kuujjuaq

Current Time: Oct 25, 2016 at 9:53:17 AM

Latest Report: Oct 25, 2016 at 9:00 AM

Visibility: 15 mi

Pressure: 30.30 "Hg

Humidity: 80%

Dew Point: 18 °F

Location of KuujjuaqLocation

Past Weather in Kuujjuaq — Graph


Kuujjuaq Temperature Yesterday

Maximum temperature yesterday: 32 °F (at 12:00 AM)
Minimum temperature yesterday: 25 °F (at 7:00 PM)
Average temperature yesterday: 29 °F

High & Low Weather Summary for the Past Weeks

High36 °F (Oct 10, 11:00 AM)100% (Oct 11, 11:00 AM)30.34 "Hg (Oct 11, 11:00 AM)
Low19 °F (Oct 22, 7:00 AM)48% (Oct 10, 2:00 PM)29.44 "Hg (Oct 13, 12:00 AM)
Average29 °F82%30.01 "Hg
* Reported Oct 10 8:00 AM — Oct 25 8:00 AM, Kuujjuaq, Weather by CustomWeather, © 2016

Note: Actual official high and low records may vary slightly from our data, if they occured in-between our weather recording intervals... More about our weather records


Kuujjuaq Weather History for the Previous 24 Hours

Scroll right to see more
Time TempWeatherWind HumidityBarometerVisibility
8:00 AM
Tue, Oct 25
21 °FLight snow. Overcast.13 mph80%30.28 "Hg15 mi
7:00 AM23 °FLight snow. Overcast.12 mph74%30.27 "Hg15 mi
6:00 AM23 °FLight snow. Overcast.10 mph80%30.25 "Hg15 mi
5:00 AM23 °FLight snow. Overcast.12 mph80%30.23 "Hg15 mi
4:00 AM23 °FLight snow. Overcast.7 mph80%30.22 "Hg15 mi
3:00 AM21 °FLight snow. Passing clouds.7 mph86%30.21 "Hg15 mi
2:00 AM25 °FLight snow. Overcast.10 mph74%30.20 "Hg15 mi
1:00 AM25 °FLight snow. Overcast.5 mph80%30.19 "Hg15 mi
12:00 AM25 °FOvercast.7 mph80%30.18 "Hg15 mi
11:00 PM
Mon, Oct 24
27 °FOvercast.8 mph69%30.16 "Hg15 mi
10:50 PM27 °FOvercast.7 mph64%30.16 "Hg15 mi
10:00 PM27 °FLight snow. Mostly cloudy.12 mph74%30.16 "Hg15 mi
9:00 PM27 °FLight snow. Partly cloudy.12 mph80%30.14 "Hg15 mi
8:00 PM25 °FLight snow. Passing clouds.10 mph93%30.12 "Hg12 mi
7:00 PM25 °FLight snow. Passing clouds.10 mph93%30.11 "Hg15 mi
6:00 PM27 °FLight snow. Partly cloudy.12 mph93%30.10 "Hg15 mi
5:00 PM28 °FPartly sunny.13 mph64%30.09 "Hg15 mi
4:00 PM28 °FLight snow. Partly sunny.13 mph69%30.07 "Hg15 mi
3:54 PM28 °FLight snow. Partly sunny.13 mph69%30.07 "Hg15 mi
3:00 PM28 °FPartly sunny.21 mph69%30.05 "Hg15 mi
2:00 PM30 °FOvercast.18 mph64%30.04 "Hg15 mi
1:00 PM30 °FPartly sunny.17 mph64%30.03 "Hg15 mi
12:00 PM30 °FPartly sunny.18 mph64%30.02 "Hg15 mi
11:00 AM30 °FPartly sunny.18 mph64%30.02 "Hg15 mi
10:00 AM30 °FPartly sunny.16 mph69%30.01 "Hg15 mi
9:00 AM30 °FPartly sunny.18 mph69%30.01 "Hg15 mi
Weather by CustomWeather, © 2016

See weather overviewHow to use our weather pages